owner,sensor,date,latitude,longitude,air_temperature,qcFlag 
TCOON,ioos:station:TCOON:518:1,2014-11-01T00:12:00Z,29.5150,-94.5133,22.0,1111122 
TCOON,ioos:station:TCOON:518:1,2014-11-01T01:12:00Z,29.5150,-94.5133,20.1,1111122 
TCOON,ioos:station:TCOON:518:1,2014-11-01T02:18:00Z,29.5150,-94.5133,19.2,1111122 
TCOON,ioos:station:TCOON:518:1,2014-11-01T03:12:00Z,29.5150,-94.5133,18.1,1111122 
TCOON,ioos:station:TCOON:518:1,2014-11-01T04:12:00Z,29.5150,-94.5133,16.9,1111122 
TCOON,ioos:station:TCOON:518:1,2014-11-01T05:12:00Z,29.5150,-94.5133,16.2,1111122 
TCOON,ioos:station:TCOON:518:1,2014-11-01T06:48:00Z,29.5150,-94.5133,15.2,1111122 
TCOON,ioos:station:TCOON:518:1,2014-11-01T07:12:00Z,29.5150,-94.5133,15.1,1111122 
TCOON,ioos:station:TCOON:518:1,2014-11-01T08:12:00Z,29.5150,-94.5133,14.0,1111122 
TCOON,ioos:station:TCOON:518:1,2014-11-01T09:12:00Z,29.5150,-94.5133,13.3,1111122 
TCOON,ioos:station:TCOON:518:1,2014-11-01T10:12:00Z,29.5150,-94.5133,12.7,1111122 
TCOON,ioos:station:TCOON:518:1,2014-11-01T11:06:00Z,29.5150,-94.5133,12.4,1111122 
TCOON,ioos:station:TCOON:518:1,2014-11-01T12:12:00Z,29.5150,-94.5133,11.8,1111122 
TCOON,ioos:station:TCOON:518:1,2014-11-01T13:12:00Z,29.5150,-94.5133,10.9,1111122 
TCOON,ioos:station:TCOON:518:1,2014-11-01T14:12:00Z,29.5150,-94.5133,11.2,1111122 
TCOON,ioos:station:TCOON:518:1,2014-11-01T15:12:00Z,29.5150,-94.5133,12.2,1111122 
TCOON,ioos:station:TCOON:518:1,2014-11-01T16:12:00Z,29.5150,-94.5133,12.8,1111122 
TCOON,ioos:station:TCOON:518:1,2014-11-01T17:12:00Z,29.5150,-94.5133,13.3,1111122 
TCOON,ioos:station:TCOON:518:1,2014-11-01T18:12:00Z,29.5150,-94.5133,14.2,1111122 
TCOON,ioos:station:TCOON:518:1,2014-11-01T19:06:00Z,29.5150,-94.5133,15.2,1111122 
TCOON,ioos:station:TCOON:518:1,2014-11-01T20:12:00Z,29.5150,-94.5133,16.1,1111122 
TCOON,ioos:station:TCOON:518:1,2014-11-01T21:12:00Z,29.5150,-94.5133,17.0,1111122 
TCOON,ioos:station:TCOON:518:1,2014-11-01T22:06:00Z,29.5150,-94.5133,17.5,1111122 
TCOON,ioos:station:TCOON:518:1,2014-11-01T23:12:00Z,29.5150,-94.5133,17.6,1111122 
TCOON,ioos:station:TCOON:518:1,2014-11-02T00:12:00Z,29.5150,-94.5133,16.8,1111122 
TCOON,ioos:station:TCOON:518:1,2014-11-02T01:12:00Z,29.5150,-94.5133,15.8,1111122 
TCOON,ioos:station:TCOON:518:1,2014-11-02T02:12:00Z,29.5150,-94.5133,15.2,1111122 
TCOON,ioos:station:TCOON:518:1,2014-11-02T03:12:00Z,29.5150,-94.5133,14.5,1111122 
TCOON,ioos:station:TCOON:518:1,2014-11-02T04:12:00Z,29.5150,-94.5133,14.2,1111122 
TCOON,ioos:station:TCOON:518:1,2014-11-02T05:12:00Z,29.5150,-94.5133,14.5,1111122 
TCOON,ioos:station:TCOON:518:1,2014-11-02T06:30:00Z,29.5150,-94.5133,13.7,1111122 
TCOON,ioos:station:TCOON:518:1,2014-11-02T07:12:00Z,29.5150,-94.5133,12.9,1111122 
TCOON,ioos:station:TCOON:518:1,2014-11-02T08:12:00Z,29.5150,-94.5133,12.5,1111122 
TCOON,ioos:station:TCOON:518:1,2014-11-02T09:12:00Z,29.5150,-94.5133,11.7,1111122 
TCOON,ioos:station:TCOON:518:1,2014-11-02T10:12:00Z,29.5150,-94.5133,11.6,1111122 
TCOON,ioos:station:TCOON:518:1,2014-11-02T11:12:00Z,29.5150,-94.5133,11.2,1111122 
TCOON,ioos:station:TCOON:518:1,2014-11-02T12:12:00Z,29.5150,-94.5133,11.3,1111122 
TCOON,ioos:station:TCOON:518:1,2014-11-02T13:12:00Z,29.5150,-94.5133,11.4,1111122 
TCOON,ioos:station:TCOON:518:1,2014-11-02T14:12:00Z,29.5150,-94.5133,12.5,1111122 
TCOON,ioos:station:TCOON:518:1,2014-11-02T15:12:00Z,29.5150,-94.5133,15.6,1111122 
TCOON,ioos:station:TCOON:518:1,2014-11-02T16:12:00Z,29.5150,-94.5133,18.9,1111122 
TCOON,ioos:station:TCOON:518:1,2014-11-02T17:06:00Z,29.5150,-94.5133,19.8,1111122 
TCOON,ioos:station:TCOON:518:1,2014-11-02T18:12:00Z,29.5150,-94.5133,20.2,1111122 
TCOON,ioos:station:TCOON:518:1,2014-11-02T19:12:00Z,29.5150,-94.5133,20.1,1111122 
TCOON,ioos:station:TCOON:518:1,2014-11-02T20:12:00Z,29.5150,-94.5133,20.3,1111122 
TCOON,ioos:station:TCOON:518:1,2014-11-02T21:12:00Z,29.5150,-94.5133,20.4,1111122 
TCOON,ioos:station:TCOON:518:1,2014-11-02T22:12:00Z,29.5150,-94.5133,20.5,1111122 
TCOON,ioos:station:TCOON:518:1,2014-11-02T23:06:00Z,29.5150,-94.5133,20.5,1111122 
TCOON,ioos:station:TCOON:518:1,2014-11-03T00:12:00Z,29.5150,-94.5133,20.1,1111122 
TCOON,ioos:station:TCOON:518:1,2014-11-03T01:12:00Z,29.5150,-94.5133,20.0,1111122 
TCOON,ioos:station:TCOON:518:1,2014-11-03T02:12:00Z,29.5150,-94.5133,20.4,1111122 
TCOON,ioos:station:TCOON:518:1,2014-11-03T03:12:00Z,29.5150,-94.5133,21.0,1111122 
TCOON,ioos:station:TCOON:518:1,2014-11-03T04:12:00Z,29.5150,-94.5133,21.6,1111122 
TCOON,ioos:station:TCOON:518:1,2014-11-03T05:12:00Z,29.5150,-94.5133,21.7,1111122 
TCOON,ioos:station:TCOON:518:1,2014-11-03T06:12:00Z,29.5150,-94.5133,21.8,1111122 
TCOON,ioos:station:TCOON:518:1,2014-11-03T07:12:00Z,29.5150,-94.5133,22.1,1111122 
TCOON,ioos:station:TCOON:518:1,2014-11-03T08:12:00Z,29.5150,-94.5133,22.3,1111122 
TCOON,ioos:station:TCOON:518:1,2014-11-03T09:12:00Z,29.5150,-94.5133,22.8,1111122 
TCOON,ioos:station:TCOON:518:1,2014-11-03T10:12:00Z,29.5150,-94.5133,23.2,1111122 
TCOON,ioos:station:TCOON:518:1,2014-11-03T11:24:00Z,29.5150,-94.5133,23.3,1111122 
TCOON,ioos:station:TCOON:518:1,2014-11-03T12:12:00Z,29.5150,-94.5133,23.4,1111122 
TCOON,ioos:station:TCOON:518:1,2014-11-03T13:12:00Z,29.5150,-94.5133,23.5,1111122 
TCOON,ioos:station:TCOON:518:1,2014-11-03T14:12:00Z,29.5150,-94.5133,24.1,1111122 
TCOON,ioos:station:TCOON:518:1,2014-11-03T15:12:00Z,29.5150,-94.5133,24.3,1111122 
TCOON,ioos:station:TCOON:518:1,2014-11-03T16:12:00Z,29.5150,-94.5133,24.8,1111122 
TCOON,ioos:station:TCOON:518:1,2014-11-03T17:12:00Z,29.5150,-94.5133,24.3,1111122 
TCOON,ioos:station:TCOON:518:1,2014-11-03T18:12:00Z,29.5150,-94.5133,25.2,1111122 
TCOON,ioos:station:TCOON:518:1,2014-11-03T19:06:00Z,29.5150,-94.5133,24.7,1111122 
TCOON,ioos:station:TCOON:518:1,2014-11-03T20:12:00Z,29.5150,-94.5133,24.5,1111122 
TCOON,ioos:station:TCOON:518:1,2014-11-03T21:18:00Z,29.5150,-94.5133,24.3,1111122 
TCOON,ioos:station:TCOON:518:1,2014-11-03T22:48:00Z,29.5150,-94.5133,23.9,1111122 
TCOON,ioos:station:TCOON:518:1,2014-11-03T23:12:00Z,29.5150,-94.5133,24.1,1111122 
TCOON,ioos:station:TCOON:518:1,2014-11-04T00:12:00Z,29.5150,-94.5133,23.9,1111122 
TCOON,ioos:station:TCOON:518:1,2014-11-04T01:12:00Z,29.5150,-94.5133,23.7,1111122 
TCOON,ioos:station:TCOON:518:1,2014-11-04T02:12:00Z,29.5150,-94.5133,23.5,1111122 
TCOON,ioos:station:TCOON:518:1,2014-11-04T03:12:00Z,29.5150,-94.5133,23.8,1111122 
TCOON,ioos:station:TCOON:518:1,2014-11-04T04:12:00Z,29.5150,-94.5133,23.9,1111122 
TCOON,ioos:station:TCOON:518:1,2014-11-04T05:12:00Z,29.5150,-94.5133,23.6,1111122 
TCOON,ioos:station:TCOON:518:1,2014-11-04T06:12:00Z,29.5150,-94.5133,23.6,1111122 
TCOON,ioos:station:TCOON:518:1,2014-11-04T07:12:00Z,29.5150,-94.5133,23.3,1111122 
TCOON,ioos:station:TCOON:518:1,2014-11-04T08:12:00Z,29.5150,-94.5133,23.4,1111122 
TCOON,ioos:station:TCOON:518:1,2014-11-04T09:12:00Z,29.5150,-94.5133,23.7,1111122 
TCOON,ioos:station:TCOON:518:1,2014-11-04T10:12:00Z,29.5150,-94.5133,23.9,1111122 
TCOON,ioos:station:TCOON:518:1,2014-11-04T11:12:00Z,29.5150,-94.5133,23.7,1111122 
TCOON,ioos:station:TCOON:518:1,2014-11-04T12:12:00Z,29.5150,-94.5133,23.7,1111122 
TCOON,ioos:station:TCOON:518:1,2014-11-04T13:12:00Z,29.5150,-94.5133,23.8,1111122 
TCOON,ioos:station:TCOON:518:1,2014-11-04T14:12:00Z,29.5150,-94.5133,24.6,1111122 
TCOON,ioos:station:TCOON:518:1,2014-11-04T15:12:00Z,29.5150,-94.5133,25.4,1111122 
TCOON,ioos:station:TCOON:518:1,2014-11-04T16:30:00Z,29.5150,-94.5133,25.4,1111122 
TCOON,ioos:station:TCOON:518:1,2014-11-04T17:12:00Z,29.5150,-94.5133,25.9,1111122 
TCOON,ioos:station:TCOON:518:1,2014-11-04T18:18:00Z,29.5150,-94.5133,25.9,1111122 
TCOON,ioos:station:TCOON:518:1,2014-11-04T19:12:00Z,29.5150,-94.5133,25.8,1111122 
TCOON,ioos:station:TCOON:518:1,2014-11-04T20:12:00Z,29.5150,-94.5133,25.9,1111122 
TCOON,ioos:station:TCOON:518:1,2014-11-04T21:12:00Z,29.5150,-94.5133,25.7,1111122 
TCOON,ioos:station:TCOON:518:1,2014-11-04T22:36:00Z,29.5150,-94.5133,24.5,1111122 
TCOON,ioos:station:TCOON:518:1,2014-11-04T23:12:00Z,29.5150,-94.5133,24.3,1111122 
TCOON,ioos:station:TCOON:518:1,2014-11-05T00:12:00Z,29.5150,-94.5133,24.1,1111122 
TCOON,ioos:station:TCOON:518:1,2014-11-05T01:12:00Z,29.5150,-94.5133,24.2,1111122 
TCOON,ioos:station:TCOON:518:1,2014-11-05T02:12:00Z,29.5150,-94.5133,24.1,1111122 
TCOON,ioos:station:TCOON:518:1,2014-11-05T03:12:00Z,29.5150,-94.5133,24.3,1111122 
TCOON,ioos:station:TCOON:518:1,2014-11-05T04:12:00Z,29.5150,-94.5133,24.1,1111122 
TCOON,ioos:station:TCOON:518:1,2014-11-05T05:12:00Z,29.5150,-94.5133,24.1,1111122 
TCOON,ioos:station:TCOON:518:1,2014-11-05T06:18:00Z,29.5150,-94.5133,23.8,1111122 
TCOON,ioos:station:TCOON:518:1,2014-11-05T07:12:00Z,29.5150,-94.5133,23.9,1111122 
TCOON,ioos:station:TCOON:518:1,2014-11-05T08:06:00Z,29.5150,-94.5133,23.7,1111122 
TCOON,ioos:station:TCOON:518:1,2014-11-05T09:12:00Z,29.5150,-94.5133,23.7,1111122 
TCOON,ioos:station:TCOON:518:1,2014-11-05T10:12:00Z,29.5150,-94.5133,23.6,1111122 
TCOON,ioos:station:TCOON:518:1,2014-11-05T11:12:00Z,29.5150,-94.5133,23.6,1111122 
TCOON,ioos:station:TCOON:518:1,2014-11-05T12:12:00Z,29.5150,-94.5133,23.6,1111122 
TCOON,ioos:station:TCOON:518:1,2014-11-05T13:12:00Z,29.5150,-94.5133,23.8,1111122 
TCOON,ioos:station:TCOON:518:1,2014-11-05T14:12:00Z,29.5150,-94.5133,24.3,1111122 
TCOON,ioos:station:TCOON:518:1,2014-11-05T15:12:00Z,29.5150,-94.5133,24.5,1111122 
TCOON,ioos:station:TCOON:518:1,2014-11-05T16:12:00Z,29.5150,-94.5133,24.9,1111122 
TCOON,ioos:station:TCOON:518:1,2014-11-05T17:18:00Z,29.5150,-94.5133,25.7,1111122 
TCOON,ioos:station:TCOON:518:1,2014-11-05T18:12:00Z,29.5150,-94.5133,24.8,1111122 
TCOON,ioos:station:TCOON:518:1,2014-11-05T19:12:00Z,29.5150,-94.5133,25.1,1111122 
TCOON,ioos:station:TCOON:518:1,2014-11-05T20:12:00Z,29.5150,-94.5133,25.1,1111122 
TCOON,ioos:station:TCOON:518:1,2014-11-05T21:06:00Z,29.5150,-94.5133,24.9,1111122 
TCOON,ioos:station:TCOON:518:1,2014-11-05T22:18:00Z,29.5150,-94.5133,24.5,1111122 
TCOON,ioos:station:TCOON:518:1,2014-11-05T23:12:00Z,29.5150,-94.5133,24.4,1111122 
TCOON,ioos:station:TCOON:518:1,2014-11-06T00:18:00Z,29.5150,-94.5133,22.1,1111122 
TCOON,ioos:station:TCOON:518:1,2014-11-06T01:12:00Z,29.5150,-94.5133,21.8,1111122 
TCOON,ioos:station:TCOON:518:1,2014-11-06T02:12:00Z,29.5150,-94.5133,21.3,1111122 
TCOON,ioos:station:TCOON:518:1,2014-11-06T03:12:00Z,29.5150,-94.5133,21.5,1111122 
TCOON,ioos:station:TCOON:518:1,2014-11-06T04:12:00Z,29.5150,-94.5133,21.5,1111122 
TCOON,ioos:station:TCOON:518:1,2014-11-06T05:12:00Z,29.5150,-94.5133,21.6,1111122 
TCOON,ioos:station:TCOON:518:1,2014-11-06T06:18:00Z,29.5150,-94.5133,21.4,1111122 
TCOON,ioos:station:TCOON:518:1,2014-11-06T07:12:00Z,29.5150,-94.5133,21.3,1111122 
TCOON,ioos:station:TCOON:518:1,2014-11-06T08:24:00Z,29.5150,-94.5133,21.1,1111122 
TCOON,ioos:station:TCOON:518:1,2014-11-06T09:12:00Z,29.5150,-94.5133,21.1,1111122 
TCOON,ioos:station:TCOON:518:1,2014-11-06T10:12:00Z,29.5150,-94.5133,20.7,1111122 
TCOON,ioos:station:TCOON:518:1,2014-11-06T11:12:00Z,29.5150,-94.5133,20.7,1111122 
TCOON,ioos:station:TCOON:518:1,2014-11-06T12:12:00Z,29.5150,-94.5133,20.4,1111122 
TCOON,ioos:station:TCOON:518:1,2014-11-06T13:12:00Z,29.5150,-94.5133,20.2,1111122 
TCOON,ioos:station:TCOON:518:1,2014-11-06T14:12:00Z,29.5150,-94.5133,20.2,1111122 
TCOON,ioos:station:TCOON:518:1,2014-11-06T15:12:00Z,29.5150,-94.5133,20.5,1111122 
TCOON,ioos:station:TCOON:518:1,2014-11-06T16:12:00Z,29.5150,-94.5133,20.7,1111122 
TCOON,ioos:station:TCOON:518:1,2014-11-06T17:12:00Z,29.5150,-94.5133,20.0,1111122 
TCOON,ioos:station:TCOON:518:1,2014-11-06T18:12:00Z,29.5150,-94.5133,19.7,1111122 
TCOON,ioos:station:TCOON:518:1,2014-11-06T19:12:00Z,29.5150,-94.5133,19.6,1111122 
TCOON,ioos:station:TCOON:518:1,2014-11-06T20:12:00Z,29.5150,-94.5133,19.4,1111122 
TCOON,ioos:station:TCOON:518:1,2014-11-06T21:12:00Z,29.5150,-94.5133,19.5,1111122 
TCOON,ioos:station:TCOON:518:1,2014-11-06T22:36:00Z,29.5150,-94.5133,20.1,1111122 
TCOON,ioos:station:TCOON:518:1,2014-11-06T23:12:00Z,29.5150,-94.5133,19.8,1111122 
TCOON,ioos:station:TCOON:518:1,2014-11-07T00:06:00Z,29.5150,-94.5133,19.0,1111122 
TCOON,ioos:station:TCOON:518:1,2014-11-07T01:12:00Z,29.5150,-94.5133,18.6,1111122 
TCOON,ioos:station:TCOON:518:1,2014-11-07T02:12:00Z,29.5150,-94.5133,18.0,1111122 
TCOON,ioos:station:TCOON:518:1,2014-11-07T03:12:00Z,29.5150,-94.5133,18.2,1111122 
TCOON,ioos:station:TCOON:518:1,2014-11-07T04:12:00Z,29.5150,-94.5133,17.8,1111122 
TCOON,ioos:station:TCOON:518:1,2014-11-07T05:12:00Z,29.5150,-94.5133,17.0,1111122 
TCOON,ioos:station:TCOON:518:1,2014-11-07T06:12:00Z,29.5150,-94.5133,16.7,1111122 
TCOON,ioos:station:TCOON:518:1,2014-11-07T07:12:00Z,29.5150,-94.5133,16.3,1111122 
TCOON,ioos:station:TCOON:518:1,2014-11-07T08:12:00Z,29.5150,-94.5133,15.4,1111122 
TCOON,ioos:station:TCOON:518:1,2014-11-07T09:12:00Z,29.5150,-94.5133,14.9,1111122 
TCOON,ioos:station:TCOON:518:1,2014-11-07T10:12:00Z,29.5150,-94.5133,14.2,1111122 
TCOON,ioos:station:TCOON:518:1,2014-11-07T11:12:00Z,29.5150,-94.5133,13.6,1111122 
TCOON,ioos:station:TCOON:518:1,2014-11-07T12:12:00Z,29.5150,-94.5133,13.6,1111122 
TCOON,ioos:station:TCOON:518:1,2014-11-07T13:12:00Z,29.5150,-94.5133,12.9,1111122 
TCOON,ioos:station:TCOON:518:1,2014-11-07T14:12:00Z,29.5150,-94.5133,13.6,1111122 
TCOON,ioos:station:TCOON:518:1,2014-11-07T15:12:00Z,29.5150,-94.5133,15.0,1111122 
TCOON,ioos:station:TCOON:518:1,2014-11-07T16:12:00Z,29.5150,-94.5133,15.4,1111122 
TCOON,ioos:station:TCOON:518:1,2014-11-07T17:12:00Z,29.5150,-94.5133,16.0,1111122 
TCOON,ioos:station:TCOON:518:1,2014-11-07T18:12:00Z,29.5150,-94.5133,16.6,1111122 
TCOON,ioos:station:TCOON:518:1,2014-11-07T19:12:00Z,29.5150,-94.5133,17.4,1111122 
TCOON,ioos:station:TCOON:518:1,2014-11-07T20:12:00Z,29.5150,-94.5133,17.7,1111122 
TCOON,ioos:station:TCOON:518:1,2014-11-07T21:12:00Z,29.5150,-94.5133,18.0,1111122 
TCOON,ioos:station:TCOON:518:1,2014-11-07T22:18:00Z,29.5150,-94.5133,17.4,1111122 
TCOON,ioos:station:TCOON:518:1,2014-11-07T23:12:00Z,29.5150,-94.5133,17.0,1111122 
TCOON,ioos:station:TCOON:518:1,2014-11-08T00:12:00Z,29.5150,-94.5133,16.7,1111122 
TCOON,ioos:station:TCOON:518:1,2014-11-08T01:12:00Z,29.5150,-94.5133,16.6,1111122 
TCOON,ioos:station:TCOON:518:1,2014-11-08T02:12:00Z,29.5150,-94.5133,16.3,1111122 
TCOON,ioos:station:TCOON:518:1,2014-11-08T03:12:00Z,29.5150,-94.5133,15.8,1111122 
TCOON,ioos:station:TCOON:518:1,2014-11-08T04:12:00Z,29.5150,-94.5133,15.8,1111122 
TCOON,ioos:station:TCOON:518:1,2014-11-08T05:12:00Z,29.5150,-94.5133,15.5,1111122 
TCOON,ioos:station:TCOON:518:1,2014-11-08T06:12:00Z,29.5150,-94.5133,15.6,1111122 
TCOON,ioos:station:TCOON:518:1,2014-11-08T07:12:00Z,29.5150,-94.5133,15.8,1111122 
TCOON,ioos:station:TCOON:518:1,2014-11-08T08:12:00Z,29.5150,-94.5133,14.8,1111122 
TCOON,ioos:station:TCOON:518:1,2014-11-08T09:12:00Z,29.5150,-94.5133,15.0,1111122 
TCOON,ioos:station:TCOON:518:1,2014-11-08T10:12:00Z,29.5150,-94.5133,15.0,1111122 
TCOON,ioos:station:TCOON:518:1,2014-11-08T11:12:00Z,29.5150,-94.5133,14.4,1111122 
TCOON,ioos:station:TCOON:518:1,2014-11-08T12:12:00Z,29.5150,-94.5133,14.4,1111122 
TCOON,ioos:station:TCOON:518:1,2014-11-08T13:12:00Z,29.5150,-94.5133,14.3,1111122 
TCOON,ioos:station:TCOON:518:1,2014-11-08T14:12:00Z,29.5150,-94.5133,13.9,1111122 
TCOON,ioos:station:TCOON:518:1,2014-11-08T15:06:00Z,29.5150,-94.5133,15.2,1111122 
TCOON,ioos:station:TCOON:518:1,2014-11-08T16:12:00Z,29.5150,-94.5133,17.1,1111122 
TCOON,ioos:station:TCOON:518:1,2014-11-08T17:12:00Z,29.5150,-94.5133,19.8,1111122 
TCOON,ioos:station:TCOON:518:1,2014-11-08T18:12:00Z,29.5150,-94.5133,19.5,1111122 
TCOON,ioos:station:TCOON:518:1,2014-11-08T19:12:00Z,29.5150,-94.5133,20.4,1111122 
TCOON,ioos:station:TCOON:518:1,2014-11-08T20:12:00Z,29.5150,-94.5133,20.5,1111122 
TCOON,ioos:station:TCOON:518:1,2014-11-08T21:12:00Z,29.5150,-94.5133,20.6,1111122 
TCOON,ioos:station:TCOON:518:1,2014-11-08T22:06:00Z,29.5150,-94.5133,21.4,1111122 
TCOON,ioos:station:TCOON:518:1,2014-11-08T23:12:00Z,29.5150,-94.5133,21.0,1111122 
TCOON,ioos:station:TCOON:518:1,2014-11-09T00:06:00Z,29.5150,-94.5133,20.6,1111122 
TCOON,ioos:station:TCOON:518:1,2014-11-09T01:12:00Z,29.5150,-94.5133,19.6,1111122 
TCOON,ioos:station:TCOON:518:1,2014-11-09T02:12:00Z,29.5150,-94.5133,19.0,1111122 
TCOON,ioos:station:TCOON:518:1,2014-11-09T03:12:00Z,29.5150,-94.5133,19.8,1111122 
TCOON,ioos:station:TCOON:518:1,2014-11-09T04:12:00Z,29.5150,-94.5133,18.2,1111122 
TCOON,ioos:station:TCOON:518:1,2014-11-09T05:12:00Z,29.5150,-94.5133,16.7,1111122 
TCOON,ioos:station:TCOON:518:1,2014-11-09T06:12:00Z,29.5150,-94.5133,16.2,1111122 
TCOON,ioos:station:TCOON:518:1,2014-11-09T07:12:00Z,29.5150,-94.5133,15.7,1111122 
TCOON,ioos:station:TCOON:518:1,2014-11-09T08:12:00Z,29.5150,-94.5133,15.0,1111122 
TCOON,ioos:station:TCOON:518:1,2014-11-09T09:12:00Z,29.5150,-94.5133,14.3,1111122 
TCOON,ioos:station:TCOON:518:1,2014-11-09T10:12:00Z,29.5150,-94.5133,13.7,1111122 
TCOON,ioos:station:TCOON:518:1,2014-11-09T11:12:00Z,29.5150,-94.5133,13.7,1111122 
TCOON,ioos:station:TCOON:518:1,2014-11-09T12:12:00Z,29.5150,-94.5133,12.7,1111122 
TCOON,ioos:station:TCOON:518:1,2014-11-09T13:12:00Z,29.5150,-94.5133,12.5,1111122 
TCOON,ioos:station:TCOON:518:1,2014-11-09T14:12:00Z,29.5150,-94.5133,13.4,1111122 
TCOON,ioos:station:TCOON:518:1,2014-11-09T15:12:00Z,29.5150,-94.5133,15.4,1111122 
TCOON,ioos:station:TCOON:518:1,2014-11-09T16:12:00Z,29.5150,-94.5133,17.1,1111122 
TCOON,ioos:station:TCOON:518:1,2014-11-09T17:12:00Z,29.5150,-94.5133,18.5,1111122 
TCOON,ioos:station:TCOON:518:1,2014-11-09T18:12:00Z,29.5150,-94.5133,18.6,1111122 
TCOON,ioos:station:TCOON:518:1,2014-11-09T18:48:00Z,29.5150,-94.5133,19.1,11111222 
TCOON,ioos:station:TCOON:518:1,2014-11-09T18:54:00Z,29.5150,-94.5133,18.8,11111222 
TCOON,ioos:station:TCOON:518:1,2014-11-09T19:00:00Z,29.5150,-94.5133,18.8,11111222 
TCOON,ioos:station:TCOON:518:1,2014-11-09T19:06:00Z,29.5150,-94.5133,18.8,1111122 
TCOON,ioos:station:TCOON:518:1,2014-11-09T19:12:00Z,29.5150,-94.5133,19.1,11111222 
TCOON,ioos:station:TCOON:518:1,2014-11-09T19:18:00Z,29.5150,-94.5133,19.2,11111222 
TCOON,ioos:station:TCOON:518:1,2014-11-09T19:24:00Z,29.5150,-94.5133,19.3,11111222 
TCOON,ioos:station:TCOON:518:1,2014-11-09T19:30:00Z,29.5150,-94.5133,19.2,11111222 
TCOON,ioos:station:TCOON:518:1,2014-11-09T19:36:00Z,29.5150,-94.5133,19.0,11111222 
TCOON,ioos:station:TCOON:518:1,2014-11-09T19:42:00Z,29.5150,-94.5133,19.1,11111222 
TCOON,ioos:station:TCOON:518:1,2014-11-09T19:48:00Z,29.5150,-94.5133,19.3,11111222 
TCOON,ioos:station:TCOON:518:1,2014-11-09T19:54:00Z,29.5150,-94.5133,19.3,11111222 
TCOON,ioos:station:TCOON:518:1,2014-11-09T20:00:00Z,29.5150,-94.5133,19.8,11111222 
TCOON,ioos:station:TCOON:518:1,2014-11-09T20:06:00Z,29.5150,-94.5133,19.6,11111222 
TCOON,ioos:station:TCOON:518:1,2014-11-09T20:12:00Z,29.5150,-94.5133,19.6,1111122 
TCOON,ioos:station:TCOON:518:1,2014-11-09T20:18:00Z,29.5150,-94.5133,19.9,11111222 
TCOON,ioos:station:TCOON:518:1,2014-11-09T20:24:00Z,29.5150,-94.5133,19.8,11111222 
TCOON,ioos:station:TCOON:518:1,2014-11-09T20:30:00Z,29.5150,-94.5133,19.8,11111222 
TCOON,ioos:station:TCOON:518:1,2014-11-09T20:36:00Z,29.5150,-94.5133,19.7,11111222 
TCOON,ioos:station:TCOON:518:1,2014-11-09T20:42:00Z,29.5150,-94.5133,19.9,11111222 
TCOON,ioos:station:TCOON:518:1,2014-11-09T20:48:00Z,29.5150,-94.5133,19.8,11111222 
TCOON,ioos:station:TCOON:518:1,2014-11-09T20:54:00Z,29.5150,-94.5133,19.9,11111222 
TCOON,ioos:station:TCOON:518:1,2014-11-09T21:00:00Z,29.5150,-94.5133,19.7,11111222 
TCOON,ioos:station:TCOON:518:1,2014-11-09T21:06:00Z,29.5150,-94.5133,19.7,1111122 
TCOON,ioos:station:TCOON:518:1,2014-11-09T21:12:00Z,29.5150,-94.5133,19.8,11111222 
TCOON,ioos:station:TCOON:518:1,2014-11-09T21:18:00Z,29.5150,-94.5133,19.8,11111222 
TCOON,ioos:station:TCOON:518:1,2014-11-09T21:24:00Z,29.5150,-94.5133,19.7,11111222 
TCOON,ioos:station:TCOON:518:1,2014-11-09T21:30:00Z,29.5150,-94.5133,20.0,11111222 
TCOON,ioos:station:TCOON:518:1,2014-11-09T21:36:00Z,29.5150,-94.5133,19.8,11111222 
TCOON,ioos:station:TCOON:518:1,2014-11-09T21:42:00Z,29.5150,-94.5133,19.8,11111222 
TCOON,ioos:station:TCOON:518:1,2014-11-09T21:48:00Z,29.5150,-94.5133,19.8,11111222 
TCOON,ioos:station:TCOON:518:1,2014-11-09T21:54:00Z,29.5150,-94.5133,19.7,11111222 
TCOON,ioos:station:TCOON:518:1,2014-11-09T22:00:00Z,29.5150,-94.5133,19.5,11111222 
TCOON,ioos:station:TCOON:518:1,2014-11-09T22:06:00Z,29.5150,-94.5133,19.5,11111222 
TCOON,ioos:station:TCOON:518:1,2014-11-09T22:12:00Z,29.5150,-94.5133,19.5,1111122 
TCOON,ioos:station:TCOON:518:1,2014-11-09T22:18:00Z,29.5150,-94.5133,19.6,11111222 
TCOON,ioos:station:TCOON:518:1,2014-11-09T22:24:00Z,29.5150,-94.5133,19.6,11111222 
TCOON,ioos:station:TCOON:518:1,2014-11-09T22:30:00Z,29.5150,-94.5133,19.5,11111222 
TCOON,ioos:station:TCOON:518:1,2014-11-09T22:36:00Z,29.5150,-94.5133,19.5,11111222 
TCOON,ioos:station:TCOON:518:1,2014-11-09T22:42:00Z,29.5150,-94.5133,19.5,11111222 
TCOON,ioos:station:TCOON:518:1,2014-11-09T22:48:00Z,29.5150,-94.5133,19.5,11111222 
TCOON,ioos:station:TCOON:518:1,2014-11-09T22:54:00Z,29.5150,-94.5133,19.3,11111222 
TCOON,ioos:station:TCOON:518:1,2014-11-09T23:00:00Z,29.5150,-94.5133,19.2,11111222 
TCOON,ioos:station:TCOON:518:1,2014-11-09T23:06:00Z,29.5150,-94.5133,19.2,1111122 
TCOON,ioos:station:TCOON:518:1,2014-11-09T23:12:00Z,29.5150,-94.5133,18.9,11111222 
TCOON,ioos:station:TCOON:518:1,2014-11-09T23:18:00Z,29.5150,-94.5133,18.6,11111222 
TCOON,ioos:station:TCOON:518:1,2014-11-09T23:24:00Z,29.5150,-94.5133,18.5,11111222 
TCOON,ioos:station:TCOON:518:1,2014-11-09T23:30:00Z,29.5150,-94.5133,18.3,11111222 
TCOON,ioos:station:TCOON:518:1,2014-11-09T23:36:00Z,29.5150,-94.5133,18.3,11111222 
TCOON,ioos:station:TCOON:518:1,2014-11-09T23:42:00Z,29.5150,-94.5133,18.2,11111222 
TCOON,ioos:station:TCOON:518:1,2014-11-09T23:48:00Z,29.5150,-94.5133,18.2,11111222 
TCOON,ioos:station:TCOON:518:1,2014-11-09T23:54:00Z,29.5150,-94.5133,18.3,11111222 
TCOON,ioos:station:TCOON:518:1,2014-11-10T00:00:00Z,29.5150,-94.5133,18.2,11111222 
TCOON,ioos:station:TCOON:518:1,2014-11-10T00:06:00Z,29.5150,-94.5133,18.2,11111222 
TCOON,ioos:station:TCOON:518:1,2014-11-10T00:12:00Z,29.5150,-94.5133,18.2,1111122 
TCOON,ioos:station:TCOON:518:1,2014-11-10T00:18:00Z,29.5150,-94.5133,18.3,11111222 
TCOON,ioos:station:TCOON:518:1,2014-11-10T00:24:00Z,29.5150,-94.5133,18.4,11111222 
TCOON,ioos:station:TCOON:518:1,2014-11-10T00:30:00Z,29.5150,-94.5133,18.5,11111222 
TCOON,ioos:station:TCOON:518:1,2014-11-10T00:36:00Z,29.5150,-94.5133,18.5,11111222 
TCOON,ioos:station:TCOON:518:1,2014-11-10T00:42:00Z,29.5150,-94.5133,18.5,11111222 
TCOON,ioos:station:TCOON:518:1,2014-11-10T00:48:00Z,29.5150,-94.5133,18.4,11111222 
TCOON,ioos:station:TCOON:518:1,2014-11-10T00:54:00Z,29.5150,-94.5133,18.4,11111222 
TCOON,ioos:station:TCOON:518:1,2014-11-10T01:00:00Z,29.5150,-94.5133,18.5,11111222 
TCOON,ioos:station:TCOON:518:1,2014-11-10T01:06:00Z,29.5150,-94.5133,18.6,11111222 
TCOON,ioos:station:TCOON:518:1,2014-11-10T01:12:00Z,29.5150,-94.5133,18.6,1111122 
TCOON,ioos:station:TCOON:518:1,2014-11-10T01:18:00Z,29.5150,-94.5133,18.6,11111222 
TCOON,ioos:station:TCOON:518:1,2014-11-10T01:24:00Z,29.5150,-94.5133,18.7,11111222 
TCOON,ioos:station:TCOON:518:1,2014-11-10T01:30:00Z,29.5150,-94.5133,18.8,11111222 
TCOON,ioos:station:TCOON:518:1,2014-11-10T01:36:00Z,29.5150,-94.5133,18.9,11111222 
TCOON,ioos:station:TCOON:518:1,2014-11-10T01:42:00Z,29.5150,-94.5133,18.7,11111222 
TCOON,ioos:station:TCOON:518:1,2014-11-10T01:48:00Z,29.5150,-94.5133,18.6,11111222 
TCOON,ioos:station:TCOON:518:1,2014-11-10T01:54:00Z,29.5150,-94.5133,18.7,11111222 
TCOON,ioos:station:TCOON:518:1,2014-11-10T02:00:00Z,29.5150,-94.5133,18.8,11111222 
TCOON,ioos:station:TCOON:518:1,2014-11-10T02:06:00Z,29.5150,-94.5133,18.8,1111122 
TCOON,ioos:station:TCOON:518:1,2014-11-10T02:12:00Z,29.5150,-94.5133,18.7,11111222 
TCOON,ioos:station:TCOON:518:1,2014-11-10T02:18:00Z,29.5150,-94.5133,18.5,11111222 